Tracking 25686 objects as of 26-May-2022
HD Live streaming from Space Station
objects crossing your sky now

SL-3 DEB

Track SL-3 DEB now!
10-day predictions


NORAD ID: 14631
Int'l Code: 1983-075E
Perigee: 455.8 km
Apogee: 463.3 km
Inclination: 97.8 °
Period: 93.6 minutes
Semi major axis: 6830 km
RCS: 0.045 m2 (small)
Launch date: July 24, 1983
Source: Commonwealth of Independent States (former USSR) (CIS)
Launch site: TYURATAM MISSILE AND SPACE COMPLEX (TTMTR)

Note: This is SATELLITE DEBRIS
aabbcc
Your satellite tracking list
Your tracking list is empty




NASA's NSSDC Master Catalog

Two Line Element Set (TLE):
1 14631U 83075E   22145.85312292  .00010907  00000-0  29515-3 0  9996
2 14631  97.7573 105.4409 0005449 329.2287  30.8637 15.37874378116315
Source of the keplerian elements: AFSPC